Zurück zum Katalog

STARLINK-35808

AktivKommunikationVLEO
NORAD 68052·PAYLOAD·🇺🇸 United States

Gestartet Mar 2, 2026 von Vandenberg Space Force Base

Loading…

Nächste Überflüge (nächste 24 Stunden)

TLE

AktuellSource: CelesTrak SupGP

Epoche: Sep 14, 2026, 21:13 UTC

1 68052C 26041N   26257.88451389  .00053528  00000+0  15817-2 0  2575
2 68052  53.1580 247.7385 0001306  93.4901 208.5560 15.34360803    17

Verfolge STARLINK-35808 in Echtzeit mit AllMySat

Download on the App Store